Location: Goettingen
(51.5300°N, 9.9433°E)
Time: 08:10:35
(UTC+01:00)

ACS3 Solar Sail - Visible Passes

Search period start: 20 January 2026 00:00
Search period end: 30 January 2026 00:00
Orbit: 898 x 978 km, 97.2° (Epoch: 19 January)

Date Brightness Start Highest point End Pass type
(mag) Time Alt. Az. Time Alt. Az. Time Alt. Az.
22 Jan 4.3 03:45:57 10° N 03:46:02 10° N 03:46:02 10° N visible
23 Jan 4.2 03:59:56 10° N 04:00:05 11° N 04:00:05 11° N visible
24 Jan 4.2 04:13:57 10° N 04:14:09 11° N 04:14:09 11° N visible
25 Jan 4.1 04:28:02 10° N 04:28:13 11° N 04:28:13 11° N visible
26 Jan 4.1 04:42:10 10° N 04:42:16 10° N 04:42:16 10° N visible
27 Jan 4.4 03:12:21 10° N 03:12:29 11° N 03:12:29 11° N visible
28 Jan 4.3 03:26:15 10° N 03:26:33 11° N 03:26:33 11° N visible
29 Jan 4.2 03:40:13 10° N 03:40:37 12° N 03:40:37 12° N visible
